軌道要素
Epoch 2014 Jan. 23.0 TT = JDT 2456680.5
T 2014 Feb. 5.27343 TT                                  MPCW
q   0.9941033            (2000.0)            P               Q
n   0.22974646     Peri.   91.44379     +0.99829790     -0.03226417
a   2.6402000      Node   270.40684     +0.01030180     +0.91749065
e   0.6234742      Incl.    2.78477     +0.05740354     +0.39644664
P   4.29
From 852 observations 1949 Nov. 21-2015 Mar. 19, mean residual 0".5.
 
  |